Location: Most
(50.5133°N, 13.6207°E)
Time: 01:00:04
(UTC+02:00)

Nauka - Pass Details

Date: 19 September 2021
Orbit: 417 x 423 km, 51.6° (Epoch: 17 October)

Event Time Altitude Azimuth Distance (km) Brightness Sun altitude
Rises 21:33:35 0° 255° (WSW) 2,360 ? -22.4°
Reaches altitude 10° 21:35:40 10° 255° (WSW) 1,499 ? -22.7°
Enters shadow 21:37:51 38° 255° (WSW) 664 ? -23.0°
